Location: DaVinci Observatory
(43.1080°N, 78.6453°W)
Time: 04:24:53
(UTC-05:00)

OTV 5 (USA 277) - Pass Details

Date: 14 October 2017
Orbit: 404 x 417 km, 43.0° (Epoch: 07 September)

Event Time Altitude Azimuth Distance (km) Brightness Sun altitude
Rises 19:32:22 0° 258° (WSW) 2,351 ? -11.6°
Reaches altitude 10° 19:34:29 10° 257° (WSW) 1,489 ? -12.0°
Maximum altitude 19:37:51 78° 171° (S) 429 ? -12.6°
Enters shadow 19:39:45 24° 87° (E) 915 ? -13.0°
